Weather History for VTBU - October, 2012

Change the Weather History Date:

Sunday, October 21, 2012

  Actual Average Record
Temperature  
Mean Temperature 86 °F -  
Max Temperature 93 °F 87 °F 93 °F (1997)
Min Temperature 78 °F 76 °F 73 °F (1996)
Cooling Degree Days 20    
Growing Degree Days 36 (Base 50)    
Moisture  
Dew Point 70 °F    
Average Humidity 63    
Maximum Humidity 79    
Minimum Humidity 38    
Precipitation  
Precipitation 0.00 in - - ()
Sea Level Pressure  
Sea Level Pressure 29.86 in    
Wind  
Wind Speed 2 mph ()    
Max Wind Speed 37 mph    
Max Gust Speed -    
Visibility 1.5 miles    
Events Thunderstorm    
Averages and records for this station are not official NWS values.
T = Trace of Precipitation, MM = Missing Value Source: Averaged Metar Reports

Daily Weather History Graph

Daily Weather History Graph

Search for Another Location

Airport or City:

Trip Planner

Search our weather history database for the weather conditions in past years. The results will help you decide how hot, cold, wet, or windy it might be!

Date:

Astronomy

Oct. 21, 2012 Rise Set
Actual Time 6:06 AM ICT 5:54 PM ICT
Civil Twilight 5:45 AM ICT 6:15 PM ICT
Nautical Twilight 5:20 AM ICT 6:40 PM ICT
Astronomical Twilight 4:55 AM ICT 7:05 PM ICT
Moon 11:40 AM ICT (10/21) 11:32 PM ICT (10/21)
Length of Visible Light 12h 30m
Length of Day
11h 47m
Waxing Crescent, 40% of the Moon is Illuminated
Oct 21
Waxing Crescent
Oct 22
First Quarter
Oct 30
Full
Nov 7
Last Quarter
Nov 14
New

Hourly Weather History & Observations

Time (ICT) Temp. Heat Index Dew Point Humidity Pressure Visibility Wind Dir Wind Speed Gust Speed Precip Events Conditions
12:00 AM 80.6 °F 84.6 °F 71.6 °F 74% 29.89 in 2.5 mi Calm Calm - N/A   Mostly Cloudy
12:30 AM 80.6 °F 84.6 °F 71.6 °F 74% 29.89 in 2.5 mi Calm Calm - N/A   Mostly Cloudy
1:00 AM 80.6 °F 84.6 °F 71.6 °F 74% 29.86 in 2.5 mi Calm Calm - N/A   Mostly Cloudy
1:30 AM 78.8 °F - 71.6 °F 78% 29.86 in 2.5 mi Calm Calm - N/A   Mostly Cloudy
2:00 AM 78.8 °F - 71.6 °F 78% 29.86 in 1.9 mi Calm Calm - N/A   Mostly Cloudy
2:30 AM 78.8 °F - 71.6 °F 78% 29.83 in 1.9 mi Calm Calm - N/A   Mostly Cloudy
4:00 AM 78.8 °F - 69.8 °F 74% 29.83 in 1.9 mi Calm Calm - N/A   Mostly Cloudy
4:30 AM 78.8 °F - 69.8 °F 74% 29.83 in 1.9 mi Calm Calm - N/A   Mostly Cloudy
5:00 AM 78.8 °F - 69.8 °F 74% 29.83 in 1.2 mi Calm Calm - N/A   Mostly Cloudy
5:30 AM 78.8 °F - 69.8 °F 74% 29.83 in 1.2 mi Calm Calm - N/A   Mostly Cloudy
6:00 AM 78.8 °F - 69.8 °F 74% 29.86 in 0.6 mi Calm Calm - N/A   Mostly Cloudy
6:30 AM 78.8 °F - 69.8 °F 74% 29.86 in 0.6 mi Calm Calm - N/A   Mostly Cloudy
7:00 AM 78.8 °F - 69.8 °F 74% 29.86 in 0.9 mi Calm Calm - N/A   Mostly Cloudy
7:30 AM 80.6 °F 83.9 °F 69.8 °F 70% 29.89 in 0.9 mi Calm Calm - N/A   Mostly Cloudy
8:00 AM 80.6 °F 84.6 °F 71.6 °F 74% 29.89 in 0.9 mi Calm Calm - N/A   Mostly Cloudy
8:30 AM 84.2 °F 89.6 °F 71.6 °F 66% 29.89 in 0.9 mi Calm Calm - N/A   Mostly Cloudy
9:00 AM 86.0 °F 91.8 °F 71.6 °F 62% 29.92 in 0.9 mi Calm Calm - N/A   Mostly Cloudy
9:30 AM 89.6 °F 92.2 °F 66.2 °F 46% 29.92 in 0.9 mi Calm Calm - N/A   Mostly Cloudy
10:00 AM 89.6 °F 92.2 °F 66.2 °F 46% 29.92 in 1.2 mi Calm Calm - N/A   Haze
10:30 AM 89.6 °F 92.2 °F 66.2 °F 46% 29.92 in 1.2 mi South 4.6 mph - N/A   Haze
11:00 AM 89.6 °F 91.1 °F 64.4 °F 43% 29.92 in 1.2 mi South 4.6 mph - N/A   Haze
11:30 AM 93.2 °F 94.9 °F 64.4 °F 38% 29.89 in 1.2 mi NNW 4.6 mph - N/A   Haze
12:30 PM 91.4 °F 93.2 °F 64.4 °F 41% 29.86 in 1.2 mi South 4.6 mph - N/A   Haze
1:00 PM 91.4 °F 94.0 °F 66.2 °F 43% 29.83 in 1.2 mi SSW 6.9 mph - N/A Thunderstorm Unknown
1:30 PM 91.4 °F 94.0 °F 66.2 °F 43% 29.83 in 1.2 mi SW 4.6 mph - N/A Thunderstorm Unknown
2:00 PM 89.6 °F 93.4 °F 68.0 °F 49% 29.83 in 1.2 mi West 4.6 mph - N/A   Haze
2:30 PM 87.8 °F 91.4 °F 68.0 °F 52% 29.80 in 1.2 mi West 4.6 mph - N/A   Haze
3:00 PM 89.6 °F 93.4 °F 68.0 °F 49% 29.80 in 1.2 mi NW 6.9 mph - N/A   Haze
3:30 PM 89.6 °F 93.4 °F 68.0 °F 49% 29.80 in 1.2 mi NW 4.6 mph - N/A Thunderstorm Unknown
4:00 PM 89.6 °F 92.2 °F 66.2 °F 46% 29.80 in 1.2 mi East 2.3 mph - N/A Thunderstorm Thunderstorm
4:30 PM 89.6 °F 93.4 °F 68.0 °F 49% 29.80 in 1.2 mi NE 2.3 mph - N/A Thunderstorm Unknown
5:00 PM 89.6 °F 94.7 °F 69.8 °F 52% 29.80 in 1.9 mi North 36.8 mph - N/A Thunderstorm Thunderstorm
5:30 PM 87.8 °F 92.6 °F 69.8 °F 55% 29.80 in 1.9 mi NE 2.3 mph - N/A   Haze
6:00 PM 86.0 °F 90.4 °F 69.8 °F 58% 29.80 in 1.9 mi Calm Calm - N/A   Haze
6:30 PM 84.2 °F 89.6 °F 71.6 °F 66% 29.83 in 1.9 mi NE 2.3 mph - N/A   Mostly Cloudy
7:00 PM 84.2 °F 90.9 °F 73.4 °F 70% 29.83 in 1.9 mi NNE 2.3 mph - N/A   Mostly Cloudy
7:30 PM 84.2 °F 89.6 °F 71.6 °F 66% 29.83 in 1.9 mi Calm Calm - N/A   Mostly Cloudy
8:00 PM 84.2 °F 89.6 °F 71.6 °F 66% 29.86 in 1.9 mi NE 2.3 mph - N/A   Mostly Cloudy
8:30 PM 82.4 °F 88.2 °F 73.4 °F 74% 29.86 in 1.9 mi NE 2.3 mph - N/A   Mostly Cloudy
9:00 PM 82.4 °F 89.5 °F 75.2 °F 79% 29.86 in 1.9 mi Calm Calm - N/A   Mostly Cloudy
9:30 PM 82.4 °F 88.2 °F 73.4 °F 74% 29.89 in 1.9 mi North 3.5 mph - N/A   Mostly Cloudy
10:00 PM 80.6 °F 84.6 °F 71.6 °F 74% 29.89 in 1.9 mi North 2.3 mph - N/A   Mostly Cloudy
10:30 PM 80.6 °F 84.6 °F 71.6 °F 74% 29.89 in 1.9 mi North 3.5 mph - N/A   Mostly Cloudy
11:00 PM 80.6 °F 84.6 °F 71.6 °F 74% 29.89 in 1.9 mi Calm Calm - N/A   Mostly Cloudy
11:30 PM 80.6 °F 84.6 °F 71.6 °F 74% 29.86 in 1.9 mi Calm Calm - N/A   Mostly Cloudy